Greensboro, NC

10:59 AM EDT on August 25, 2016 (GMT -0400)
Piedmont Triad International

Weather History for KGSO - August, 2013

Change the Weather History Date:

Friday, August 2, 2013

  Actual Average Record
Temperature  
Mean Temperature 77 °F 78 °F  
Max Temperature 86 °F 87 °F 101 °F (1915)
Min Temperature 68 °F 69 °F 57 °F (1912)
Degree Days  
Heating Degree Days 0 0  
Month to date heating degree days 0 0  
Since 1 June heating degree days 0 6  
Since 1 July heating degree days 0 0  
Cooling Degree Days 12 13  
Month to date cooling degree days 25 26  
Year to date cooling degree days 874 911  
Since 1 June cooling degree days 724 752  
Growing Degree Days 27 (Base 50)    
Moisture  
Dew Point 65 °F    
Average Humidity 66    
Maximum Humidity 84    
Minimum Humidity 48    
Precipitation  
Precipitation 0.00 in 0.14 in 1.75 in (1933)
Month to date precipitation T 0.27  
Year to date precipitation 32.74 25.18  
Sea Level Pressure  
Sea Level Pressure 29.98 in    
Wind  
Wind Speed 3 mph (NW)    
Max Wind Speed 10 mph    
Max Gust Speed 13 mph    
Visibility 10 miles    
Events      
T = Trace of Precipitation, MM = Missing Value Source: NWS Daily Summary

Daily Weather History Graph

Daily Weather History Graph

Search for Another Location

Airport or City:

Trip Planner

Search our weather history database for the weather conditions in past years. The results will help you decide how hot, cold, wet, or windy it might be!

Date:

Astronomy

Aug. 02, 2013 Rise Set
Actual Time 6:27 AM EDT 8:23 PM EDT
Civil Twilight 5:59 AM EDT 8:51 PM EDT
Nautical Twilight 5:25 AM EDT 9:25 PM EDT
Astronomical Twilight 4:48 AM EDT 10:02 PM EDT
Moon 2:48 AM EDT (8/2) 5:18 PM EDT (8/2)
Length of Visible Light 14h 52m
Length of Day
13h 55m
Waning Crescent, 16% of the Moon is Illuminated
Aug 2
Waning Crescent
Aug 6
New
Aug 14
First Quarter
Aug 20
Full
Aug 28
Last Quarter

Hourly Weather History & Observations

Time (EDT) Temp. Heat Index Dew Point Humidity Pressure Visibility Wind Dir Wind Speed Gust Speed Precip Events Conditions
12:54 AM 73.0 °F - 68.0 °F 84% 29.93 in 10.0 mi Calm Calm - N/A   Mostly Cloudy
1:54 AM 72.0 °F - 66.9 °F 84% 29.92 in 10.0 mi Calm Calm - N/A   Mostly Cloudy
2:54 AM 72.0 °F - 66.9 °F 84% 29.93 in 10.0 mi Calm Calm - N/A   Mostly Cloudy
3:54 AM 72.0 °F - 66.9 °F 84% 29.92 in 10.0 mi Calm Calm - N/A   Scattered Clouds
4:54 AM 71.1 °F - 66.9 °F 87% 29.93 in 10.0 mi Calm Calm - N/A   Scattered Clouds
5:54 AM 69.1 °F - 64.9 °F 87% 29.95 in 10.0 mi Calm Calm - N/A   Partly Cloudy
6:54 AM 69.1 °F - 64.9 °F 87% 29.96 in 10.0 mi North 3.5 mph - N/A   Scattered Clouds
7:54 AM 71.1 °F - 64.9 °F 81% 29.97 in 10.0 mi NNE 4.6 mph - N/A   Scattered Clouds
8:54 AM 75.0 °F - 64.0 °F 69% 30.00 in 10.0 mi North 6.9 mph - N/A   Scattered Clouds
9:54 AM 78.1 °F - 64.0 °F 62% 30.00 in 10.0 mi NNE 5.8 mph - N/A   Mostly Cloudy
10:54 AM 80.1 °F 81.7 °F 64.0 °F 58% 30.01 in 10.0 mi NNE 4.6 mph - N/A   Mostly Cloudy
11:54 AM 82.0 °F 83.1 °F 63.0 °F 52% 30.02 in 10.0 mi NE 3.5 mph - N/A   Mostly Cloudy
12:54 PM 84.0 °F 84.5 °F 62.1 °F 47% 30.02 in 10.0 mi Calm Calm - N/A   Mostly Cloudy
1:54 PM 82.9 °F 83.7 °F 62.1 °F 49% 30.01 in 10.0 mi Calm Calm - N/A   Mostly Cloudy
2:54 PM 84.9 °F 86.1 °F 64.0 °F 49% 29.99 in 10.0 mi Variable 4.6 mph - N/A   Mostly Cloudy
3:54 PM 82.9 °F 84.4 °F 64.0 °F 53% 29.99 in 10.0 mi Variable 3.5 mph - N/A   Mostly Cloudy
4:54 PM 84.9 °F 86.6 °F 64.9 °F 51% 29.98 in 10.0 mi West 6.9 mph - N/A   Mostly Cloudy
5:54 PM 82.9 °F 84.4 °F 64.0 °F 53% 29.98 in 10.0 mi WSW 8.1 mph - N/A   Mostly Cloudy
6:54 PM 82.9 °F 84.4 °F 64.0 °F 53% 29.98 in 10.0 mi West 5.8 mph - N/A   Mostly Cloudy
7:54 PM 79.0 °F - 64.9 °F 62% 29.98 in 10.0 mi West 5.8 mph - N/A   Mostly Cloudy
8:54 PM 78.1 °F - 66.0 °F 66% 29.99 in 10.0 mi WNW 3.5 mph - N/A   Mostly Cloudy
9:54 PM 77.0 °F - 66.0 °F 69% 30.01 in 10.0 mi Calm Calm - N/A   Clear
10:54 PM 73.0 °F - 66.9 °F 81% 30.02 in 10.0 mi SSW 4.6 mph - N/A   Partly Cloudy
11:54 PM 73.9 °F - 68.0 °F 82% 30.01 in 10.0 mi SW 3.5 mph - N/A   Scattered Clouds